DELTA 1 DEB, 25997

Orbit data source: Space-Track

DELTA 1 DEB, 25997 is space debris in SSO originally from a launch on Thu, 12 Jun 1975 UTC launched from the Air Force Western Test Range (AFWTR). Debris objects in space refer to the collection of defunct objects orbiting the Earth. Examples of debris include non-operational satellites, rocket bodies, and fragments generated from explosions, collisions, or faulty payload assembly.

Loading next visibility...
Identifier
25997, 1975-052BA
Orbit
SSO
Country
Flag of USUS
Related business
Manufacturer
Unknown
Mission
Spacecraft
Bus & Motor
Unknown
Mass
Unknown
Launch date (UTC)
1975-06-12 (51 years ago)
Launch vehicle
Unknown
Launch site
Air Force Western Test Range (AFWTR)
Object type
Payload
Rocket body
Debris
Shape & HBR
Unknown shape, 0.1 m
Radar Cross Section
Small (<0.1 m²)

Expand to show TLE details & history
Last TLE update: 13 hours ago

TLE from 13 hours ago
0 DELTA 1 DEB
1 25997U 75052BA  25353.80815584  .00002262  00000-0  69216-3 0  9997
2 25997  99.9839 303.8800 0120405 167.5106 192.9107 14.38939134645583
Epoch: 2025-12-19T19:23Z
TLE epoch observation values (Epoch: 2025-12-19T19:23:44.664Z)
Latitude
0.00002°
Longitude
-75.7001°
Altitude
848.768 km
Speed
7.385 km/s
True Right ascension
20h 15m 31s
True Declination
0° 00' 00"
Sunlit
Object was in daylight at epoch
Visualization orbit readout
Latitude
Unknown
Longitude
Unknown
Altitude
Unknown
Speed
Unknown
Apparent Right ascension
Unknown
Apparent Declination
Unknown
Sunlit
N/A
Visualization observer readout
Local Sidereal Time
07:16:19
Azimuth
Unknown
Elevation
Unknown
Doppler factor
Unknown
Orbital elements
Apogee altitude
845.141 km
Perigee altitude
673.267 km
Semi-major axis
7,137.341 km
Eccentricity
0.01204
Inclination
99.9839°
RAAN
303.88°
Arg. of periapsis
167.5106°
True anomaly
192.60688°
Mean anomaly
192.9107°
Eccentric anomaly
192.75835°
Mean motion
3.59947 °/min
Orbital period
100.01 mins
BSTAR
0.00069216
Loading maneuver chart data...
Computing Atmospheric mass density...
Loading historical data...
Loading historical data...
Loading historical data...
Loading historical data...
Loading historical data...
Loading historical data...
Loading historical data...

Documentation

Showing up to 5 results
|